Irvine, KY (40472)

8:15 PM EDT on July 04, 2015 (GMT -0400)
Irvine, Ky. | | Change Station
CLOSE
Current Station
Personal Weather Station
Location: Irvine, KY
Elevation: 719 ft
Nearby Weather Stations

Elev 719 ft 37.69 °N, 83.96 °W | Updated 1 second ago

Partly Cloudy
Partly Cloudy
75.3 °F
Feels Like 75 °F
N
0.0
Wind Variable Wind from NE
Gusts 1.0 mph

Today
High -- | Low -- °F
--% Chance of Precip.
Yesterday
High -- | Low -- °F
Precip. -- in
6:19 AM 9:00 PM
Waning Gibbous, 89% visible
Pressure 30.00 in
Visibility 7.0 miles
Clouds Scattered Clouds 3400 ft
Scattered Clouds 4100 ft
Mostly Cloudy 4800 ft
Heat Index 75 °F
Dew Point 70 °F
Humidity 85%
Rainfall 0.43 in
Snow Depth Not available.
UV 0 out of 12
Pollen .50 out of 12
Air Quality Not available.
Flu Activity Not available.
METAR KI39 042355Z AUTO 00000KT 7SM SCT034 SCT041 BKN048 24/19 A3000 RMK AO2

More Conditions Fewer Conditions

Pressure 30.00 in
Visibility 7.0 miles
Clouds Scattered Clouds 3400 ft
Scattered Clouds 4100 ft
Mostly Cloudy 4800 ft
Heat Index 75 °F
Dew Point 70 °F
Humidity 85%
Rainfall 0.43 in
Snow Depth Not available.
UV 0 out of 12
Pollen .50 out of 12
Air Quality Not available.
Flu Activity Not available.
METAR KI39 042355Z AUTO 00000KT 7SM SCT034 SCT041 BKN048 24/19 A3000 RMK AO2

More Conditions Fewer Conditions

10-Day Weather Forecast

×

Almanac

Astronomy

Jul. 04, 2015 Rise Set
Actual Time
Civil Twilight
Nautical Twilight
Astronomical Twilight
Moon
Length of Visible Light
Length of Day
Tomorrow will be .
, % of the Moon is Illuminated

Today's Extremes

State Highs State Lows

Community

WunderPhotos

Upload Photos

1,835,119 photos uploaded!

WunderBlogs® & News

Nearby

Air Quality

  Air Quality AQ Index Pollutant
Not available.

Snow Depth

Station Depth Elevation

Earthquake Activity

City Distance Mag. Time & Date
Minimum magnitude displayed is 2.5.

Coastal Water Temperatures

Place Temperature

Stations

Nearby Weather Stations

Station Location Temp. Windchill Dew Point Humidity Wind Precip. Elev Updated Type